Time,TemperatureF,DewpointF,PressureIn,WindDirection,WindDirectionDegrees,WindSpeedMPH,WindSpeedGustMPH,Humidity,HourlyPrecipIn,Conditions,Clouds,dailyrainin,SoftwareType,DateUTC
2013-02-01 00:12:00,36.7,35.0,30.33,West,267,0.0,0.0,92,0.00,,,0.00,weatherlink.com 1.10,2013-02-01 06:12:00,
2013-02-01 00:27:00,36.4,35.0,30.33,West,267,0.0,0.0,94,0.00,,,0.00,weatherlink.com 1.10,2013-02-01 06:27:00,
2013-02-01 00:42:00,36.0,35.0,30.33,West,267,0.0,0.0,94,0.00,,,0.00,weatherlink.com 1.10,2013-02-01 06:42:00,
2013-02-01 00:57:00,36.3,35.0,30.33,West,267,0.0,1.0,95,0.00,,,0.00,weatherlink.com 1.10,2013-02-01 06:57:00,
2013-02-01 01:12:00,36.2,35.0,30.33,West,267,0.0,0.0,94,0.00,,,0.00,weatherlink.com 1.10,2013-02-01 07:12:00,
2013-02-01 01:28:00,36.0,35.0,30.32,West,267,0.0,0.0,94,0.00,,,0.00,weatherlink.com 1.10,2013-02-01 07:28:00,
2013-02-01 01:43:00,35.6,34.0,30.32,West,267,0.0,0.0,95,0.00,,,0.00,weatherlink.com 1.10,2013-02-01 07:43:00,
2013-02-01 01:58:00,35.3,34.0,30.32,West,267,0.0,0.0,95,0.00,,,0.00,weatherlink.com 1.10,2013-02-01 07:58:00,
2013-02-01 02:13:00,35.1,34.0,30.32,West,266,0.0,0.0,95,0.00,,,0.00,weatherlink.com 1.10,2013-02-01 08:13:00,
2013-02-01 02:28:00,35.1,34.0,30.31,West,267,0.0,0.0,95,0.00,,,0.00,weatherlink.com 1.10,2013-02-01 08:28:00,
2013-02-01 02:43:00,34.9,34.0,30.31,West,267,0.0,0.0,95,0.00,,,0.00,weatherlink.com 1.10,2013-02-01 08:43:00,
2013-02-01 02:58:00,35.3,34.0,30.32,West,267,0.0,0.0,96,0.00,,,0.00,weatherlink.com 1.10,2013-02-01 08:58:00,
2013-02-01 03:13:00,35.3,34.0,30.32,West,266,0.0,0.0,96,0.00,,,0.00,weatherlink.com 1.10,2013-02-01 09:13:00,
2013-02-01 03:28:00,35.3,34.0,30.32,West,267,0.0,0.0,96,0.00,,,0.00,weatherlink.com 1.10,2013-02-01 09:28:00,
2013-02-01 03:43:00,35.3,34.0,30.32,West,267,0.0,0.0,95,0.00,,,0.00,weatherlink.com 1.10,2013-02-01 09:43:00,
2013-02-01 03:58:00,35.5,34.0,30.32,West,266,0.0,0.0,95,0.00,,,0.00,weatherlink.com 1.10,2013-02-01 09:58:00,
2013-02-01 04:13:00,35.6,34.0,30.32,West,267,0.0,0.0,95,0.00,,,0.00,weatherlink.com 1.10,2013-02-01 10:13:00,
2013-02-01 04:28:00,35.6,35.0,30.32,West,267,0.0,0.0,96,0.00,,,0.00,weatherlink.com 1.10,2013-02-01 10:28:00,
2013-02-01 04:43:00,36.3,35.0,30.32,West,266,0.0,1.0,96,0.00,,,0.00,weatherlink.com 1.10,2013-02-01 10:43:00,
2013-02-01 04:58:00,36.3,35.0,30.33,West,267,0.0,0.0,96,0.00,,,0.00,weatherlink.com 1.10,2013-02-01 10:58:00,
2013-02-01 05:13:00,36.3,35.0,30.33,West,267,0.0,0.0,96,0.00,,,0.00,weatherlink.com 1.10,2013-02-01 11:13:00,
2013-02-01 05:28:00,36.6,36.0,30.35,North,360,0.0,1.0,96,0.00,,,0.00,weatherlink.com 1.10,2013-02-01 11:28:00,
2013-02-01 05:43:00,36.3,35.0,30.35,North,360,0.0,0.0,96,0.00,,,0.00,weatherlink.com 1.10,2013-02-01 11:43:00,
2013-02-01 05:58:00,36.4,35.0,30.36,North,10,1.0,1.0,96,0.00,,,0.00,weatherlink.com 1.10,2013-02-01 11:58:00,
2013-02-01 06:13:00,36.3,35.0,30.36,ENE,60,0.0,1.0,96,0.00,,,0.00,weatherlink.com 1.10,2013-02-01 12:13:00,
2013-02-01 06:28:00,36.2,35.0,30.36,ENE,60,0.0,0.0,96,0.00,,,0.00,weatherlink.com 1.10,2013-02-01 12:28:00,
2013-02-01 06:43:00,35.9,35.0,30.37,ENE,60,0.0,0.0,96,0.00,,,0.00,weatherlink.com 1.10,2013-02-01 12:43:00,
2013-02-01 06:58:00,35.8,35.0,30.37,ENE,60,0.0,0.0,96,0.00,,,0.00,weatherlink.com 1.10,2013-02-01 12:58:00,
2013-02-01 07:13:00,35.6,35.0,30.38,ENE,60,0.0,0.0,96,0.00,,,0.00,weatherlink.com 1.10,2013-02-01 13:13:00,
2013-02-01 07:58:00,37.6,37.0,30.39,ENE,60,0.0,0.0,97,0.00,,,0.00,weatherlink.com 1.10,2013-02-01 13:58:00,
2013-02-01 08:13:00,38.7,38.0,30.39,ENE,60,0.0,1.0,97,0.00,,,0.00,weatherlink.com 1.10,2013-02-01 14:13:00,
2013-02-01 08:28:00,40.2,39.0,30.39,ENE,60,1.0,1.0,96,0.00,,,0.00,weatherlink.com 1.10,2013-02-01 14:28:00,
2013-02-01 08:43:00,42.1,41.0,30.39,East,84,1.0,1.0,94,0.00,,,0.00,weatherlink.com 1.10,2013-02-01 14:43:00,
2013-02-01 08:58:00,44.3,41.0,30.40,ENE,76,3.0,4.0,89,0.00,,,0.00,weatherlink.com 1.10,2013-02-01 14:58:00,
2013-02-01 09:14:00,46.1,42.0,30.40,NE,53,0.0,5.0,84,0.00,,,0.00,weatherlink.com 1.10,2013-02-01 15:14:00,
2013-02-01 09:29:00,47.1,41.0,30.40,ENE,59,4.0,8.0,78,0.00,,,0.00,weatherlink.com 1.10,2013-02-01 15:29:00,
2013-02-01 09:44:00,48.4,42.0,30.40,NE,43,4.0,7.0,77,0.00,,,0.00,weatherlink.com 1.10,2013-02-01 15:44:00,
2013-02-01 09:59:00,50.5,42.0,30.40,East,85,9.0,9.0,73,0.00,,,0.00,weatherlink.com 1.10,2013-02-01 15:59:00,
2013-02-01 10:14:00,51.9,41.0,30.40,East,96,6.0,12.0,66,0.00,,,0.00,weatherlink.com 1.10,2013-02-01 16:14:00,
2013-02-01 10:29:00,53.4,41.0,30.40,ENE,63,6.0,7.0,63,0.00,,,0.00,weatherlink.com 1.10,2013-02-01 16:29:00,
2013-02-01 10:44:00,54.3,41.0,30.40,North,4,2.0,7.0,62,0.00,,,0.00,weatherlink.com 1.10,2013-02-01 16:44:00,
2013-02-01 10:59:00,55.3,41.0,30.39,East,80,3.0,7.0,58,0.00,,,0.00,weatherlink.com 1.10,2013-02-01 16:59:00,
2013-02-01 11:14:00,55.4,40.0,30.39,ENE,58,8.0,9.0,56,0.00,,,0.00,weatherlink.com 1.10,2013-02-01 17:14:00,
2013-02-01 11:29:00,55.8,41.0,30.38,East,88,4.0,8.0,57,0.00,,,0.00,weatherlink.com 1.10,2013-02-01 17:29:00,
2013-02-01 11:44:00,56.8,40.0,30.38,NNE,32,4.0,6.0,54,0.00,,,0.00,weatherlink.com 1.10,2013-02-01 17:44:00,
2013-02-01 11:59:00,57.5,40.0,30.37,NNE,13,1.0,7.0,53,0.00,,,0.00,weatherlink.com 1.10,2013-02-01 17:59:00,
2013-02-01 12:14:00,58.3,40.0,30.36,East,101,3.0,8.0,50,0.00,,,0.00,weatherlink.com 1.10,2013-02-01 18:14:00,
2013-02-01 12:29:00,58.6,39.0,30.35,East,79,6.0,10.0,48,0.00,,,0.00,weatherlink.com 1.10,2013-02-01 18:29:00,
2013-02-01 12:44:00,58.9,40.0,30.34,West,276,0.0,10.0,49,0.00,,,0.00,weatherlink.com 1.10,2013-02-01 18:44:00,
2013-02-01 12:59:00,60.2,39.0,30.34,East,84,1.0,7.0,45,0.00,,,0.00,weatherlink.com 1.10,2013-02-01 18:59:00,
2013-02-01 13:14:00,60.2,38.0,30.34,ENE,63,0.0,9.0,44,0.00,,,0.00,weatherlink.com 1.10,2013-02-01 19:14:00,
2013-02-01 13:29:00,60.9,37.0,30.33,East,85,0.0,6.0,42,0.00,,,0.00,weatherlink.com 1.10,2013-02-01 19:29:00,
2013-02-01 13:44:00,61.4,37.0,30.33,ENE,58,0.0,7.0,41,0.00,,,0.00,weatherlink.com 1.10,2013-02-01 19:44:00,
2013-02-01 13:59:00,61.8,36.0,30.32,NNE,15,3.0,8.0,39,0.00,,,0.00,weatherlink.com 1.10,2013-02-01 19:59:00,
2013-02-01 14:14:00,62.3,36.0,30.32,East,82,4.0,8.0,38,0.00,,,0.00,weatherlink.com 1.10,2013-02-01 20:14:00,
2013-02-01 14:30:00,62.9,37.0,30.32,East,87,3.0,4.0,38,0.00,,,0.00,weatherlink.com 1.10,2013-02-01 20:30:00,
2013-02-01 14:45:00,63.6,37.0,30.31,East,94,3.0,5.0,37,0.00,,,0.00,weatherlink.com 1.10,2013-02-01 20:45:00,
2013-02-01 15:00:00,63.2,37.0,30.31,East,82,0.0,3.0,38,0.00,,,0.00,weatherlink.com 1.10,2013-02-01 21:00:00,
2013-02-01 15:15:00,63.6,37.0,30.30,ENE,64,0.0,6.0,37,0.00,,,0.00,weatherlink.com 1.10,2013-02-01 21:15:00,
2013-02-01 15:30:00,63.5,37.0,30.30,ENE,72,6.0,7.0,38,0.00,,,0.00,weatherlink.com 1.10,2013-02-01 21:30:00,
2013-02-01 15:45:00,63.3,37.0,30.30,SSE,155,0.0,5.0,38,0.00,,,0.00,weatherlink.com 1.10,2013-02-01 21:45:00,
2013-02-01 16:00:00,63.3,37.0,30.30,ENE,73,2.0,4.0,38,0.00,,,0.00,weatherlink.com 1.10,2013-02-01 22:00:00,
2013-02-01 16:15:00,63.4,36.0,30.30,ENE,61,0.0,2.0,37,0.00,,,0.00,weatherlink.com 1.10,2013-02-01 22:15:00,
2013-02-01 16:30:00,63.2,37.0,30.30,ESE,117,0.0,1.0,38,0.00,,,0.00,weatherlink.com 1.10,2013-02-01 22:30:00,
2013-02-01 16:45:00,62.7,37.0,30.30,ENE,76,0.0,1.0,38,0.00,,,0.00,weatherlink.com 1.10,2013-02-01 22:45:00,
2013-02-01 17:00:00,61.3,37.0,30.30,East,100,0.0,2.0,41,0.00,,,0.00,weatherlink.com 1.10,2013-02-01 23:00:00,
2013-02-01 17:15:00,59.9,37.0,30.30,ESE,103,0.0,0.0,43,0.00,,,0.00,weatherlink.com 1.10,2013-02-01 23:15:00,
2013-02-01 17:30:00,57.8,37.0,30.30,East,101,0.0,0.0,47,0.00,,,0.00,weatherlink.com 1.10,2013-02-01 23:30:00,
2013-02-01 17:45:00,54.9,38.0,30.30,East,101,0.0,0.0,54,0.00,,,0.00,weatherlink.com 1.10,2013-02-01 23:45:00,
2013-02-01 18:00:00,53.2,39.0,30.30,East,101,0.0,0.0,59,0.00,,,0.00,weatherlink.com 1.10,2013-02-02 00:00:00,
2013-02-01 18:15:00,51.5,40.0,30.30,East,101,0.0,0.0,64,0.00,,,0.00,weatherlink.com 1.10,2013-02-02 00:15:00,
2013-02-01 18:30:00,49.7,40.0,30.30,East,101,0.0,0.0,69,0.00,,,0.00,weatherlink.com 1.10,2013-02-02 00:30:00,
2013-02-01 18:45:00,49.2,40.0,30.30,ESE,102,0.0,0.0,70,0.00,,,0.00,weatherlink.com 1.10,2013-02-02 00:45:00,
2013-02-01 19:00:00,48.1,41.0,30.30,East,101,0.0,0.0,75,0.00,,,0.00,weatherlink.com 1.10,2013-02-02 01:00:00,
2013-02-01 19:15:00,47.5,41.0,30.30,ESE,102,0.0,0.0,77,0.00,,,0.00,weatherlink.com 1.10,2013-02-02 01:15:00,
2013-02-01 19:30:00,47.4,41.0,30.30,East,101,0.0,0.0,77,0.00,,,0.00,weatherlink.com 1.10,2013-02-02 01:30:00,
2013-02-01 19:45:00,46.0,40.0,30.30,East,101,0.0,0.0,80,0.00,,,0.00,weatherlink.com 1.10,2013-02-02 01:45:00,
2013-02-01 20:00:00,44.8,40.0,30.31,ESE,102,0.0,0.0,83,0.00,,,0.00,weatherlink.com 1.10,2013-02-02 02:00:00,
2013-02-01 20:15:00,43.8,39.0,30.31,ESE,102,0.0,0.0,84,0.00,,,0.00,weatherlink.com 1.10,2013-02-02 02:15:00,
2013-02-01 20:30:00,43.1,40.0,30.31,East,101,0.0,0.0,88,0.00,,,0.00,weatherlink.com 1.10,2013-02-02 02:30:00,
2013-02-01 20:45:00,43.3,40.0,30.32,East,101,0.0,0.0,88,0.00,,,0.00,weatherlink.com 1.10,2013-02-02 02:45:00,
2013-02-01 21:01:00,42.7,39.0,30.32,East,101,0.0,0.0,86,0.00,,,0.00,weatherlink.com 1.10,2013-02-02 03:01:00,
2013-02-01 21:15:00,42.2,38.0,30.32,ESE,102,0.0,0.0,85,0.00,,,0.00,weatherlink.com 1.10,2013-02-02 03:15:00,
2013-02-01 21:30:00,42.1,39.0,30.32,East,101,0.0,0.0,87,0.00,,,0.00,weatherlink.com 1.10,2013-02-02 03:30:00,
2013-02-01 21:45:00,41.6,38.0,30.31,East,101,0.0,0.0,88,0.00,,,0.00,weatherlink.com 1.10,2013-02-02 03:45:00,
2013-02-01 22:00:00,41.3,38.0,30.31,East,101,0.0,1.0,89,0.00,,,0.00,weatherlink.com 1.10,2013-02-02 04:00:00,
2013-02-01 22:15:00,40.9,38.0,30.31,East,101,0.0,1.0,90,0.00,,,0.00,weatherlink.com 1.10,2013-02-02 04:15:00,
2013-02-01 22:30:00,40.3,38.0,30.32,East,101,0.0,0.0,91,0.00,,,0.00,weatherlink.com 1.10,2013-02-02 04:30:00,
2013-02-01 22:45:00,39.8,38.0,30.32,ESE,102,0.0,0.0,92,0.00,,,0.00,weatherlink.com 1.10,2013-02-02 04:45:00,
2013-02-01 23:00:00,39.4,37.0,30.33,WSW,239,0.0,1.0,92,0.00,,,0.00,weatherlink.com 1.10,2013-02-02 05:00:00,
2013-02-01 23:15:00,39.1,37.0,30.32,WSW,240,0.0,0.0,93,0.00,,,0.00,weatherlink.com 1.10,2013-02-02 05:15:00,
2013-02-01 23:30:00,38.7,37.0,30.32,WSW,240,0.0,0.0,93,0.00,,,0.00,weatherlink.com 1.10,2013-02-02 05:30:00,
2013-02-01 23:45:00,38.4,37.0,30.32,WSW,240,0.0,0.0,93,0.00,,,0.00,weatherlink.com 1.10,2013-02-02 05:45:00,